Tracking 35280 objects as of 7-Sep-2026
HD Live streaming from Space Station
objects crossing your sky now

OPS 5712 (P/L 152)

Track OPS 5712 (P/L 152) now!
10-day predictions
OPS 5712 (P/L 152) is classified as:


NORAD ID: 2873
Int'l Code: 1967-053G
Launch date: May 31, 1967
Source: United States (US)
Launch site: AIR FORCE WESTERN TEST RANGE (AFWTR)
Your satellite tracking list
Your tracking list is empty




NASA's NSSDC Master Catalog

Two Line Element Set (TLE):
1 02873U 67053G   26249.98710782  .00000030  00000-0  58430-4 0  9993
2 02873  69.9720 234.2001 0006101  27.6081  36.5916 13.98541716 19947
Source of the keplerian elements: AFSPC